Temp
-5 -4 -4 -4 -4 -2 -2 -2 0 1 1 0 0 -1 -0 -0 -0 -0 -1 -1 0 0 1 1 1 2 2 1 3 4 5 5 6 5 5 5 5 5 5 5 4 4 4 4
-5 -5 -4 -3 -2 -2 -2 -2 -1 -0 1 -1 -1 -2 -2 -1 -1 -1 -1 -1 -0 -0 0 1 1 1 1 2 2 2 4 3 4 5 5 4 4 4 4 4 4 4 4 4
-5 -4 -4 -3 -1 -1 -1 -1 -0 0 -2 -2 -1 -2 -1 -2 -3 -3 -2 -2 -1 -1 -1 0 1 1 0 2 2 2 1 2 2 3 3 3 3 3 3 3 3 3 3 3
-6 -5 -4 -2 -1 -0 -0 -2 -1 -3 -4 -2 -2 -2 -3 -3 -3 -3 -3 -2 -2 -2 -2 -1 -0 1 1 1 1 2 2 2 2 1 1 1 1 2 1 2 2 1 2 3
-6 -5 -5 -1 -1 -1 -1 -4 -4 -4 -4 -3 -2 -2 -4 -4 -3 -3 -3 -3 -3 -3 -3 -3 -2 -1 0 1 1 1 2 2 2 1 2 2 2 2 2 1 1 1 1 1
-7 -7 -4 -4 -3 -3 -3 -4 -4 -4 -4 -4 -3 -3 -5 -3 -3 -3 -4 -4 -4 -3 -3 -3 -4 -5 -4 -2 -2 -1 -1 -1 1 0 1 1 0 0 1 1 1 0 -0 -0
-7 -7 -5 -5 -5 -3 -2 -5 -5 -4 -4 -3 -3 -3 -4 -4 -4 -4 -4 -5 -5 -4 -4 -4 -4 -4 -4 -5 -5 -5 -3 -3 -2 -4 -2 -4 -3 -3 -1 -0 -0 -1 -2 -0
-6 -5 -5 -5 -4 -4 -6 -5 -5 -5 -5 -4 -4 -4 -5 -4 -4 -5 -5 -5 -5 -5 -5 -5 -5 -5 -5 -5 -4 -5 -5 -4 -5 -5 -5 -3 -5 -4 -5 -5 -5 -3 -2 -1
-6 -8 -7 -6 -6 -6 -5 -5 -5 -5 -5 -5 -5 -6 -6 -6 -6 -6 -6 -6 -6 -6 -5 -5 -6 -6 -5 -5 -5 -5 -5 -5 -5 -5 -4 -4 -5 -5 -5 -5 -5 -3 -3 -2
-7 -7 -7 -6 -6 -6 -6 -6 -6 -5 -6 -6 -6 -6 -6 -7 -7 -6 -6 -6 -5 -5 -6 -7 -6 -6 -6 -6 -5 -4 -4 -4 -5 -5 -4 -4 -4 -4 -4 -5 -5 -5 -5 -4
-8 -7 -7 -7 -6 -7 -7 -7 -7 -7 -7 -7 -7 -7 -7 -7 -7 -7 -7 -6 -6 -6 -6 -6 -7 -7 -6 -6 -6 -5 -5 -5 -5 -4 -4 -5 -5 -5 -5 -4 -4 -4 -4 -4
-9 -8 -8 -7 -7 -7 -7 -7 -7 -7 -7 -7 -7 -7 -7 -7 -7 -7 -7 -7 -7 -6 -6 -7 -7 -6 -6 -6 -6 -5 -5 -5 -5 -5 -5 -5 -5 -5 -5 -5 -5 -5 -5 -6
-8 -8 -8 -8 -8 -8 -8 -8 -7 -7 -7 -7 -7 -7 -7 -7 -7 -7 -7 -7 -7 -7 -7 -8 -8 -7 -7 -7 -7 -7 -6 -6 -7 -7 -6 -6 -6 -6 -6 -6 -7 -7 -7 -7
-9 -9 -9 -8 -8 -8 -8 -8 -8 -8 -8 -8 -7 -7 -7 -7 -8 -8 -8 -8 -8 -8 -8 -8 -8 -8 -8 -8 -8 -7 -7 -7 -7 -7 -7 -7 -8 -8 -8 -8 -8 -8 -8 -8
-9 -9 -9 -8 -8 -8 -8 -7 -7 -7 -7 -7 -7 -7 -7 -7 -8 -8 -8 -9 -9 -9 -8 -8 -8 -9 -9 -8 -8 -8 -8 -8 -9 -9 -9 -9 -9 -9 -9 -9 -9 -9 -9 -9
-9 -9 -9 -9 -8 -8 -8 -7 -7 -7 -7 -7 -7 -7 -7 -8 -8 -8 -8 -9 -9 -10 -10 -10 -10 -10 -10 -9 -9 -9 -9 -9 -10 -10 -10 -10 -10 -10 -10 -10 -10 -10 -10 -10
-10 -9 -9 -9 -8 -8 -8 -8 -8 -8 -8 -8 -8 -8 -8 -8 -8 -9 -9 -9 -10 -10 -11 -11 -11 -11 -11 -11 -11 -11 -11 -11 -11 -11 -11 -11 -11 -11 -11 -11 -11 -11 -11 -11
-9 -9 -9 -8 -8 -8 -8 -8 -8 -8 -8 -8 -9 -9 -9 -9 -9 -10 -10 -10 -11 -11 -11 -12 -12 -12 -12 -12 -12 -12 -12 -12 -12 -12 -12 -12 -12 -12 -12 -12 -12 -12 -12 -12
-8 -8 -8 -8 -8 -8 -9 -9 -9 -9 -10 -10 -10 -10 -10 -11 -11 -11 -11 -12 -12 -12 -12 -13 -13 -13 -13 -13 -13 -13 -13 -13 -13 -13 -12 -12 -12 -13 -12 -13 -13 -13 -13 -13
-9 -9 -8 -9 -9 -9 -9 -9 -10 -10 -11 -11 -11 -12 -12 -12 -12 -12 -12 -13 -13 -13 -13 -13 -13 -14 -14 -14 -14 -14 -14 -13 -13 -14 -13 -13 -13 -14 -14 -14 -14 -14 -14 -14
-9 -9 -9 -9 -9 -10 -10 -10 -11 -11 -12 -12 -12 -13 -13 -13 -13 -13 -13 -13 -14 -14 -14 -14 -14 -14 -14 -14 -14 -14 -14 -14 -14 -14 -15 -15 -15 -15 -15 -15 -16 -16 -16 -16
-9 -9 -10 -10 -11 -11 -11 -12 -12 -12 -13 -13 -13 -13 -14 -14 -14 -14 -14 -14 -14 -14 -14 -14 -14 -15 -15 -15 -15 -15 -15 -15 -15 -15 -16 -16 -16 -16 -17 -17 -17 -18 -18 -18
-10 -10 -11 -11 -11 -12 -12 -13 -13 -13 -14 -14 -14 -14 -14 -14 -14 -15 -14 -15 -15 -15 -15 -16 -16 -16 -16 -16 -16 -16 -16 -17 -17 -17 -17 -17 -18 -18 -18 -18 -19 -19 -19 -19
-11 -11 -11 -12 -12 -13 -13 -13 -14 -14 -14 -14 -15 -15 -15 -15 -15 -16 -16 -16 -16 -17 -17 -17 -17 -17 -18 -18 -18 -18 -18 -18 -18 -19 -19 -19 -19 -19 -20 -20 -20 -20 -20 -21
-12 -12 -13 -13 -13 -14 -14 -14 -14 -15 -15 -15 -16 -16 -17 -17 -17 -17 -17 -18 -18 -18 -18 -19 -19 -19 -19 -19 -19 -19 -20 -20 -20 -20 -20 -20 -20 -20 -21 -21 -21 -21 -21 -21
-12 -13 -13 -13 -14 -14 -14 -15 -15 -15 -16 -16 -17 -17 -17 -18 -18 -18 -19 -19 -19 -19 -20 -20 -20 -20 -20 -20 -20 -20 -20 -20 -21 -21 -21 -21 -21 -21 -21 -21 -21 -21 -21 -22
-13 -13 -13 -14 -14 -15 -15 -16 -16 -17 -17 -18 -18 -18 -18 -18 -19 -19 -20 -20 -20 -20 -20 -21 -21 -21 -21 -21 -21 -21 -21 -21 -21 -21 -21 -21 -21 -22 -22 -22 -22 -22 -22 -22
Height
2988 2984 2986 2984 2980 2978 2979 2979 2981 2983 2983 2981 2979 2976 2976 2975 2973 2971 2969 2969 2968 2968 2971 2972 2975 2977 2981 2986 2988 2991 2996 3000 3004 3007 3010 3014 3015 3017 3020 3021 3022 3024 3024 3026
2982 2982 2982 2978 2975 2976 2977 2973 2975 2979 2979 2975 2976 2973 2973 2974 2971 2969 2969 2967 2967 2966 2967 2970 2972 2974 2978 2982 2985 2987 2990 2995 2999 3003 3007 3009 3011 3013 3016 3019 3020 3022 3023 3024
2976 2980 2978 2970 2968 2972 2975 2976 2976 2974 2975 2973 2974 2973 2973 2972 2970 2968 2968 2966 2965 2963 2964 2967 2969 2973 2974 2979 2981 2983 2986 2990 2994 2997 3000 3004 3007 3008 3010 3014 3016 3018 3020 3022
2976 2978 2974 2962 2964 2966 2972 2972 2973 2973 2971 2971 2972 2971 2971 2970 2970 2968 2966 2964 2962 2961 2962 2965 2966 2969 2971 2974 2977 2980 2983 2985 2989 2992 2995 2998 3001 3004 3005 3007 3010 3013 3015 3017
2976 2975 2967 2960 2963 2965 2966 2970 2970 2969 2969 2969 2971 2970 2970 2969 2968 2967 2966 2963 2963 2963 2962 2962 2963 2963 2967 2969 2972 2976 2977 2980 2982 2987 2989 2991 2994 2998 3000 3001 3004 3006 3008 3011
2976 2975 2960 2956 2960 2962 2962 2969 2970 2970 2972 2971 2969 2968 2969 2967 2966 2965 2965 2963 2963 2963 2964 2964 2963 2965 2962 2963 2965 2968 2966 2965 2970 2975 2978 2979 2982 2985 2988 2993 2996 2999 2999 3002
2972 2971 2960 2956 2956 2958 2964 2976 2971 2971 2971 2969 2968 2968 2966 2965 2964 2964 2962 2961 2961 2962 2964 2965 2965 2962 2964 2964 2964 2961 2961 2962 2968 2966 2968 2966 2971 2975 2979 2984 2989 2991 2993 2997
2964 2958 2959 2962 2961 2962 2969 2969 2970 2969 2967 2964 2963 2963 2962 2962 2961 2961 2961 2961 2961 2962 2963 2964 2965 2965 2964 2965 2967 2964 2966 2968 2966 2970 2970 2968 2966 2969 2975 2979 2986 2990 2993 2995
2964 2964 2963 2963 2964 2966 2968 2969 2968 2968 2966 2964 2962 2961 2961 2961 2961 2961 2962 2962 2961 2963 2964 2965 2965 2965 2966 2966 2963 2965 2966 2968 2968 2969 2961 2969 2973 2973 2974 2978 2983 2986 2989 2991
2967 2968 2966 2964 2964 2964 2965 2967 2968 2968 2967 2965 2964 2963 2962 2962 2962 2962 2962 2962 2962 2963 2963 2964 2965 2966 2966 2966 2966 2966 2966 2967 2969 2969 2968 2971 2972 2972 2976 2979 2981 2983 2985 2987
2969 2969 2968 2968 2967 2966 2967 2967 2967 2968 2968 2967 2966 2965 2965 2965 2965 2964 2963 2963 2963 2963 2963 2966 2966 2967 2968 2969 2970 2970 2970 2969 2969 2969 2968 2970 2973 2974 2976 2977 2979 2980 2981 2981
2970 2970 2970 2969 2968 2969 2969 2969 2969 2969 2969 2968 2968 2967 2967 2966 2966 2965 2965 2964 2964 2964 2964 2965 2967 2967 2966 2967 2968 2969 2970 2970 2969 2970 2971 2972 2972 2973 2973 2975 2975 2975 2976 2977
2969 2968 2969 2969 2970 2971 2971 2970 2970 2970 2970 2969 2969 2968 2967 2967 2966 2966 2966 2966 2965 2966 2966 2966 2966 2967 2967 2967 2968 2967 2966 2966 2967 2969 2969 2969 2969 2969 2970 2970 2971 2971 2972 2972
2970 2970 2970 2970 2971 2972 2971 2971 2971 2970 2970 2969 2969 2967 2967 2966 2965 2965 2965 2965 2965 2965 2965 2965 2965 2965 2965 2965 2965 2964 2964 2965 2965 2964 2965 2965 2965 2965 2965 2966 2966 2966 2967 2967
2970 2970 2971 2972 2972 2972 2971 2971 2970 2970 2969 2968 2967 2966 2965 2964 2963 2962 2962 2962 2963 2963 2963 2963 2963 2963 2963 2962 2962 2962 2961 2961 2960 2959 2960 2960 2960 2960 2961 2961 2962 2961 2961 2961
2971 2971 2971 2972 2972 2971 2970 2969 2969 2968 2967 2966 2965 2964 2963 2963 2962 2961 2961 2960 2960 2959 2960 2960 2959 2959 2959 2958 2958 2957 2957 2956 2956 2955 2955 2955 2955 2956 2956 2956 2956 2955 2955 2954
2970 2970 2970 2970 2970 2969 2968 2967 2966 2966 2964 2963 2963 2962 2961 2960 2959 2959 2958 2958 2957 2957 2956 2956 2956 2955 2954 2953 2953 2952 2952 2951 2951 2951 2951 2951 2951 2950 2950 2950 2950 2949 2948 2947
2968 2968 2968 2967 2966 2965 2965 2964 2963 2963 2962 2960 2959 2958 2958 2957 2956 2955 2955 2954 2953 2953 2952 2952 2951 2951 2950 2950 2949 2949 2949 2949 2949 2949 2948 2948 2947 2946 2946 2944 2943 2943 2942 2940
2966 2966 2966 2965 2965 2964 2963 2962 2960 2959 2958 2957 2956 2955 2954 2954 2953 2952 2951 2951 2950 2949 2948 2948 2947 2947 2946 2946 2946 2946 2946 2945 2945 2944 2942 2942 2941 2940 2938 2937 2936 2935 2934 2933
2964 2963 2963 2963 2962 2961 2960 2959 2958 2957 2956 2955 2955 2954 2953 2952 2951 2950 2949 2949 2948 2947 2946 2945 2944 2943 2942 2941 2940 2940 2939 2938 2937 2936 2935 2934 2933 2933 2931 2929 2928 2927 2926 2925
2962 2961 2961 2960 2960 2959 2957 2957 2956 2955 2954 2954 2953 2952 2951 2950 2949 2948 2947 2947 2944 2943 2942 2941 2939 2938 2936 2935 2934 2933 2931 2929 2928 2927 2926 2925 2924 2922 2921 2920 2919 2918 2916 2915
2960 2959 2958 2958 2957 2957 2957 2956 2955 2955 2954 2953 2951 2950 2949 2947 2946 2944 2942 2941 2940 2937 2936 2935 2933 2931 2930 2928 2927 2925 2924 2922 2921 2919 2918 2917 2915 2914 2913 2912 2911 2909 2908 2907
2957 2957 2957 2957 2957 2956 2956 2956 2955 2954 2953 2951 2950 2948 2946 2944 2942 2939 2937 2936 2933 2931 2929 2928 2926 2924 2923 2921 2920 2918 2916 2915 2913 2912 2910 2909 2907 2907 2905 2904 2903 2901 2900 2899
2957 2957 2957 2957 2956 2956 2955 2953 2952 2951 2949 2947 2945 2943 2940 2938 2935 2934 2931 2929 2927 2925 2922 2920 2918 2917 2915 2913 2912 2910 2908 2907 2905 2904 2903 2901 2900 2899 2898 2897 2896 2894 2893 2892
2957 2956 2956 2955 2954 2953 2952 2950 2948 2946 2944 2941 2939 2937 2934 2931 2929 2926 2924 2922 2919 2916 2915 2913 2911 2909 2907 2905 2904 2902 2901 2899 2898 2897 2895 2894 2893 2892 2891 2889 2888 2887 2885 2884
2956 2956 2955 2953 2951 2949 2947 2945 2942 2939 2937 2934 2931 2930 2928 2925 2922 2919 2917 2914 2912 2910 2907 2906 2904 2902 2900 2899 2897 2896 2894 2892 2891 2890 2888 2887 2886 2885 2883 2882 2881 2879 2878 2877
2954 2953 2951 2950 2948 2945 2942 2939 2936 2933 2930 2928 2925 2921 2920 2918 2915 2912 2910 2907 2905 2903 2901 2899 2897 2896 2894 2892 2890 2888 2887 2885 2884 2883 2881 2880 2879 2877 2876 2875 2873 2872 2870 2868
Wind_Speed
28 31 22 24 28 18 22 21 15 11 10 8 9 5 8 12 19 13 10 11 10 11 15 18 20 20 25 24 26 29 35 38 36 33 26 22 22 18 17 16 15 12 11 11
30 25 22 28 25 12 16 20 10 13 7 9 4 2 12 14 15 12 13 14 13 11 15 17 20 24 25 29 28 28 30 36 37 32 27 25 23 20 19 20 19 17 16 15
22 19 21 18 23 15 11 9 11 5 2 5 10 10 14 13 15 9 11 16 13 11 13 20 23 22 24 31 29 29 28 29 33 31 30 27 25 24 19 20 20 20 20 20
14 13 7 18 12 14 11 5 4 10 8 8 8 9 9 10 8 10 13 14 16 16 11 19 26 29 29 30 30 31 30 32 31 30 28 25 24 22 18 18 18 19 21 22
6 10 25 21 13 11 9 7 2 7 5 12 10 13 11 12 10 11 16 16 14 14 10 13 19 26 30 33 34 32 35 36 33 32 33 31 30 28 26 19 25 25 21 20
10 3 4 7 8 3 6 7 8 10 10 10 15 15 12 12 13 13 14 12 13 12 11 7 6 2 17 25 29 33 35 36 42 36 41 39 35 33 33 33 35 32 21 22
20 14 6 12 9 9 2 4 10 12 13 13 15 16 13 11 12 12 12 8 7 11 11 9 8 12 4 9 5 9 17 17 23 17 31 16 22 23 30 32 33 31 14 15
13 9 6 13 7 8 6 3 10 15 16 17 12 10 9 9 8 6 6 9 9 7 7 7 6 7 9 7 9 4 2 1 5 5 4 14 4 7 7 6 9 12 16 18
10 7 10 15 11 6 4 9 14 14 12 12 7 3 1 1 0 2 3 3 5 8 9 4 2 2 2 3 4 5 4 4 3 0 4 7 6 4 4 4 7 9 10 13
8 9 11 15 14 8 6 8 9 9 7 7 7 7 6 3 0 2 4 4 5 6 6 5 4 4 5 5 4 4 3 1 2 2 1 1 3 3 5 6 8 12 13 16
5 6 8 11 12 7 5 3 4 5 7 8 8 9 9 7 4 2 0 1 3 4 5 3 1 2 0 2 3 3 3 3 3 3 3 2 4 6 9 10 12 13 14 15
4 6 7 7 8 5 4 6 5 5 6 5 5 6 6 5 5 5 4 2 2 3 4 4 1 2 3 3 3 4 4 5 6 6 7 8 8 9 9 10 11 12 13 14
6 3 3 3 2 1 2 4 4 4 4 5 5 5 5 5 4 4 4 4 3 2 2 2 1 3 3 4 4 5 6 6 7 8 8 9 10 10 11 12 12 12 13 14
4 3 4 3 2 1 2 4 4 5 6 7 8 7 7 7 7 7 7 6 5 5 6 6 6 6 6 7 8 7 8 9 10 10 11 11 11 12 12 12 13 14 15 15
3 2 4 4 3 3 4 4 5 7 8 8 8 9 10 10 10 10 10 9 8 7 7 8 8 8 9 10 10 11 11 11 11 11 11 12 12 13 13 14 14 15 16 17
2 2 2 1 2 4 6 7 8 8 9 10 11 11 10 10 11 12 11 11 10 10 9 9 10 10 11 11 12 12 12 13 12 12 13 13 14 14 15 15 15 16 18 19
6 5 6 7 8 10 10 10 9 8 8 9 10 11 11 12 12 12 13 13 13 12 12 11 11 11 12 12 12 13 12 12 12 13 14 15 16 17 18 19 19 20 22 23
9 9 10 11 11 9 9 9 10 10 11 11 12 13 13 13 13 14 14 14 14 13 13 13 13 12 12 12 12 12 13 13 14 15 16 18 19 20 22 22 23 22 23 24
7 8 9 9 10 10 11 12 13 13 12 12 12 12 13 13 13 14 14 14 14 15 14 14 13 13 14 14 14 15 15 17 18 19 22 22 23 23 24 24 25 26 26 26
6 7 8 9 10 11 11 12 11 11 10 10 10 11 11 12 12 13 13 13 14 14 15 15 16 16 18 19 20 21 22 22 23 23 24 24 24 24 25 26 27 28 28 29
7 7 8 9 10 9 9 10 10 9 9 9 9 10 10 11 12 14 15 13 17 18 19 19 22 22 24 25 26 26 26 26 27 26 26 26 27 27 27 27 28 28 28 29
8 8 8 7 7 7 7 7 7 7 8 10 11 13 14 16 17 19 20 22 20 24 24 23 25 25 27 27 27 28 28 28 29 29 29 29 29 29 28 28 27 27 27 26
8 7 6 6 6 6 6 7 9 10 12 14 16 17 19 20 21 23 23 22 23 25 25 25 25 26 27 28 28 28 28 28 28 28 28 27 27 26 26 25 24 25 24 24
5 4 4 4 6 8 10 13 14 16 18 19 20 20 21 22 23 22 24 25 26 26 26 26 26 26 26 26 25 25 25 25 25 24 24 24 24 23 23 23 22 22 22 22
3 4 7 9 11 13 15 17 19 18 20 21 21 22 23 23 24 26 25 24 24 25 24 23 24 23 23 23 23 23 22 22 22 22 22 21 21 21 21 21 22 22 23 24
7 9 12 14 17 19 21 22 22 25 24 24 25 23 21 23 23 24 23 23 23 21 22 21 20 21 21 22 22 22 21 22 21 21 21 22 22 22 23 23 24 24 25 26
11 14 16 18 18 20 23 24 25 25 26 25 25 28 26 24 24 23 23 23 22 21 21 21 22 21 21 22 22 23 23 23 23 23 23 23 24 24 25 25 26 26 26 27
Wind_Direction
269 275 281 286 277 280 285 265 235 255 278 315 316 293 313 330 341 329 345 335 261 233 244 231 226 218 213 216 223 223 222 222 222 224 228 229 232 233 237 240 241 244 234 217
265 276 280 293 263 271 288 257 252 240 229 320 342 163 324 332 325 324 335 333 330 246 230 238 220 223 204 214 221 239 232 225 225 224 223 225 227 228 232 232 233 233 234 234
264 274 282 283 239 244 240 256 247 259 37 314 323 321 312 325 336 346 324 349 313 316 239 222 213 224 210 216 217 234 243 228 227 220 215 221 223 221 226 237 235 232 233 230
285 306 267 279 200 211 193 114 167 74 18 322 322 327 321 326 3 356 344 347 340 338 272 232 215 209 208 213 216 228 232 232 225 228 220 220 224 225 219 226 240 242 233 233
275 284 287 177 145 145 183 82 51 34 318 305 335 330 335 336 312 325 335 329 327 319 306 242 223 205 207 208 214 215 220 223 211 223 216 211 212 216 219 213 230 236 231 235
278 281 273 58 74 107 130 78 318 319 333 318 321 322 312 310 316 316 315 302 297 302 298 286 248 193 179 192 197 204 199 193 198 202 210 201 197 192 204 220 227 231 217 224
262 255 257 14 53 106 94 14 321 336 332 308 295 297 302 284 283 297 304 298 274 271 257 253 267 261 323 356 227 181 188 185 205 197 201 203 198 201 210 219 227 231 231 243
237 241 85 45 53 110 111 314 340 331 327 325 305 286 288 277 275 279 270 259 261 261 215 204 189 201 222 232 227 275 24 105 112 93 192 225 247 182 160 200 229 237 239 244
38 65 0 14 22 11 324 312 318 326 330 348 358 22 312 255 144 230 216 192 184 200 186 180 135 76 97 98 89 102 94 66 16 140 120 152 168 169 176 207 231 237 263 275
342 4 9 11 0 348 307 287 301 323 357 12 26 41 52 47 112 192 201 212 199 176 112 65 45 28 358 356 313 308 301 305 229 214 160 244 239 266 243 240 236 231 246 254
18 13 356 11 12 6 360 352 10 39 41 45 53 55 56 47 31 36 198 213 188 197 194 213 41 339 326 173 169 178 212 243 251 253 299 261 224 215 215 219 224 231 239 246
292 311 328 338 351 350 53 64 70 40 22 23 21 22 21 29 18 17 20 359 258 212 196 197 276 242 257 250 246 239 237 243 249 247 243 244 248 248 246 247 249 253 257 262
325 287 321 325 357 357 44 38 25 23 20 15 6 5 0 1 5 3 5 11 1 325 280 245 236 298 284 267 260 265 273 269 263 258 260 260 260 261 263 263 265 265 266 268
16 115 113 109 109 55 27 24 21 20 12 3 333 331 322 314 311 311 314 316 308 305 310 304 300 290 283 289 283 276 274 272 270 271 271 271 272 272 272 273 274 275 276 277
263 314 131 118 83 50 23 351 330 316 316 316 316 315 315 314 313 311 308 303 295 285 274 269 268 268 269 267 270 271 270 273 274 274 274 273 273 271 270 269 269 274 277 280
299 186 158 261 301 299 296 296 302 304 301 299 299 301 299 294 294 297 298 299 298 294 286 280 277 276 274 275 275 275 274 274 275 276 278 279 279 278 278 279 281 281 282 282
304 255 265 292 294 301 302 306 313 314 311 307 305 301 298 295 293 290 290 291 292 293 292 287 283 281 281 283 284 283 282 282 282 283 283 282 283 284 285 286 287 287 288 289
279 282 284 296 303 307 308 305 303 303 301 299 297 296 294 293 292 291 290 290 291 290 290 290 290 289 287 285 283 282 282 282 282 282 282 282 284 286 287 288 289 289 290 292
280 281 283 288 296 298 299 301 304 306 305 302 299 296 295 294 294 294 294 296 297 297 297 297 297 296 294 292 290 288 286 286 286 288 287 288 289 289 288 290 290 292 292 293
286 293 295 299 303 307 312 313 313 312 312 310 308 306 305 304 303 302 301 302 298 296 295 296 295 295 293 292 291 291 291 290 289 288 288 288 286 286 288 289 290 290 290 291
314 317 322 322 318 321 323 321 319 319 319 316 313 309 306 304 302 300 297 295 294 293 292 293 291 290 289 289 291 292 292 292 293 293 292 291 291 291 291 291 291 292 293 293
321 321 320 320 327 331 328 324 320 316 314 312 311 309 308 306 303 300 299 299 295 292 291 292 288 288 287 287 288 288 289 289 289 290 290 290 290 291 291 292 293 293 293 294
314 318 324 331 331 324 318 316 315 313 310 306 303 300 298 297 297 296 296 292 293 291 292 290 289 287 287 286 286 286 286 287 287 287 288 288 288 290 290 291 291 292 293 294
300 307 307 307 312 315 315 314 312 310 307 306 304 303 302 301 298 298 297 296 295 294 294 292 291 290 289 289 288 288 288 287 287 287 286 286 288 288 288 289 290 291 292 292
295 310 311 311 312 313 314 313 312 311 309 308 307 306 305 304 303 304 301 300 298 297 296 295 294 293 293 293 292 291 291 290 290 288 289 288 289 289 290 291 292 293 293 295
309 312 314 316 317 319 319 320 318 317 319 317 314 312 310 307 306 305 304 303 302 300 299 299 297 296 296 295 294 293 293 292 291 291 291 291 292 292 293 293 294 294 294 294
316 318 318 318 320 318 318 319 318 317 317 318 314 313 315 313 312 311 310 309 306 304 302 300 299 297 296 296 295 295 294 293 292 292 292 291 291 291 291 291 291 292 292 293